Flag for Colombia Weather past 2 weeks in Cali, Colombia

Now
70 °F

Passing clouds.


Feels Like: 70 °F
Forecast: 67 / 83 °F
Wind: No wind

Location: Cali / Alfonso Bonillaaragon

Current Time: Aug 23, 2014 at 6:56:33 AM

Latest Report: Aug 23, 2014 at 6:00 AM


Visibility: N/A

Pressure: 29.97 "Hg

Humidity: 83%

Dew point: 64 °F

Location of CaliLocation

Historic Weather in Cali — Graph

°F

Cali temperature yesterday

Maximum temperature yesterday: 86 °F (at 1:00 PM)
Minimum temperature yesterday: 66 °F (at 6:00 AM)
Average temperature yesterday: 75 °F

Past Weeks' High & Low Weather Summary

 TemperatureHumidityPressure
High93 °F (Aug 15, 3:00 PM)94% (Aug 9, 6:00 AM)30.07 "Hg (Aug 9, 6:00 AM)
Low64 °F (Aug 15, 5:00 AM)28% (Aug 19, 2:00 PM)29.81 "Hg (Aug 14, 4:00 PM)
Average77 °F68%29.96 "Hg
* Reported Aug 8 6:00 AM — Aug 23 6:00 AM, Cali, Weather by CustomWeather, © 2014

Note: Actual official high and low records may vary slightly from our data, if they occured in-between our weather recording intervals... More about our weather records

Advertising

Cali weather history for previous 24 hours

 ConditionsComfort  
Time TempWeatherWind HumidityBarometerVisibility
6:00 AM
Aug 23
70 °FPassing clouds.No wind83%29.97 "HgN/A
5:00 AM70 °FOvercast.2 mph83%29.97 "HgN/A
4:00 AM70 °FOvercast.5 mph83%29.96 "HgN/A
3:00 AM72 °FPassing clouds.5 mph78%29.96 "HgN/A
2:00 AM72 °FPassing clouds.8 mph78%29.97 "HgN/A
1:00 AM73 °FPassing clouds.8 mph74%29.99 "HgN/A
12:00 AM72 °FPassing clouds.8 mph78%30.00 "HgN/A
11:00 PM
Aug 22
73 °FPassing clouds.14 mph74%30.00 "HgN/A
10:00 PM75 °FPassing clouds.12 mph69%29.99 "HgN/A
9:00 PM75 °FPassing clouds.12 mph69%29.97 "HgN/A
8:00 PM75 °FPassing clouds.13 mph69%29.95 "HgN/A
7:00 PMN/APartly cloudy.9 mphN/AN/AN/A
6:00 PM79 °FBroken clouds.12 mph65%29.89 "Hg6 mi
5:00 PM82 °FBroken clouds.16 mph55%29.87 "Hg6 mi
4:00 PM84 °FBroken clouds.14 mph51%29.87 "Hg6 mi
3:00 PM86 °FBroken clouds.14 mph49%29.89 "Hg6 mi
2:00 PM86 °FBroken clouds.5 mph49%29.91 "Hg6 mi
1:00 PM86 °FScattered clouds.6 mph49%29.95 "Hg6 mi
12:00 PM84 °FPartly sunny.3 mph51%29.99 "Hg5 mi
11:00 AM81 °FPartly sunny.5 mph58%30.02 "Hg5 mi
10:00 AM75 °FScattered clouds.3 mph65%30.05 "Hg5 mi
9:00 AM73 °FBroken clouds.5 mph74%30.04 "Hg5 mi
8:00 AM70 °FPartly sunny.3 mph83%30.02 "Hg5 mi
7:00 AM66 °FBroken clouds.No wind88%30.01 "Hg5 mi
6:00 AM66 °FPassing clouds.No wind88%30.00 "HgN/A
Weather by CustomWeather, © 2014

See weather overviewHow to use our weather pages